User: anonymous   Login
Location: Unspecified
(0.0000°N, 0.0000°E)
Time: 12:09:08
(UTC+00:00)
Language:

UFO 9 - Orbit

View from above orbital plane
View from above orbital plane
View from above satellite
View from above satellite

Ground track
Ground track

The orbit data is extracted from the following two-line orbital elements,

1 25501U 98058A   17153.43503277 0.00000000  00000-0  00000-0 0    04
2 25501   7.9323  33.9222 0014805 306.5391  53.3367  0.98173927    08
Epoch (UTC): 02 June 2017 10:26:26
Eccentricity: 0.0014805
inclination: 7.9323°
perigee height: 36321 km
apogee height: 36448 km
right ascension of ascending node: 33.9222°
argument of perigee: 306.5391°
revolutions per day: 0.98173927
mean anomaly at epoch: 53.3367°
orbit number at epoch: 0

The dashed part of the orbit path shows where the satellite is in the earth's shadow,  

DLR